owner,sensor,date,latitude,longitude,vertical_datum,mass_concentration_of_oxygen_in_sea_water,qcFlag 
DISL,ioos:station:DISL:KATA:1,2017-05-01T00:00:00Z,30.2583,-88.2131,4.303,7.55,1111122 
DISL,ioos:station:DISL:KATA:1,2017-05-01T00:30:00Z,30.2583,-88.2131,4.202,7.57,1111122 
DISL,ioos:station:DISL:KATA:1,2017-05-01T01:00:00Z,30.2583,-88.2131,4.247,7.55,1111122 
DISL,ioos:station:DISL:KATA:1,2017-05-01T01:30:00Z,30.2583,-88.2131,4.125,7.85,1111122 
DISL,ioos:station:DISL:KATA:1,2017-05-01T02:00:00Z,30.2583,-88.2131,4.104,7.66,1111122 
DISL,ioos:station:DISL:KATA:1,2017-05-01T02:30:00Z,30.2583,-88.2131,4.008,7.69,1111122 
DISL,ioos:station:DISL:KATA:1,2017-05-01T03:00:00Z,30.2583,-88.2131,3.966,7.77,1111122 
DISL,ioos:station:DISL:KATA:1,2017-05-01T03:30:00Z,30.2583,-88.2131,3.984,7.57,1111122 
DISL,ioos:station:DISL:KATA:1,2017-05-01T04:00:00Z,30.2583,-88.2131,4.103,7.32,1111122 
DISL,ioos:station:DISL:KATA:1,2017-05-01T04:30:00Z,30.2583,-88.2131,4.145,7.45,1111122 
DISL,ioos:station:DISL:KATA:1,2017-05-01T05:00:00Z,30.2583,-88.2131,4.171,7.46,1111122 
DISL,ioos:station:DISL:KATA:1,2017-05-01T05:30:00Z,30.2583,-88.2131,4.215,7.39,1111122 
DISL,ioos:station:DISL:KATA:1,2017-05-01T06:00:00Z,30.2583,-88.2131,4.273,7.49,1111122 
DISL,ioos:station:DISL:KATA:1,2017-05-01T06:30:00Z,30.2583,-88.2131,4.284,7.53,1111122 
DISL,ioos:station:DISL:KATA:1,2017-05-01T07:00:00Z,30.2583,-88.2131,4.244,7.49,1111122 
DISL,ioos:station:DISL:KATA:1,2017-05-01T07:30:00Z,30.2583,-88.2131,4.287,7.22,1111122 
DISL,ioos:station:DISL:KATA:1,2017-05-01T08:00:00Z,30.2583,-88.2131,4.327,7.47,1111122 
DISL,ioos:station:DISL:KATA:1,2017-05-01T08:30:00Z,30.2583,-88.2131,4.496,7.55,1111122 
DISL,ioos:station:DISL:KATA:1,2017-05-01T09:00:00Z,30.2583,-88.2131,4.344,7.4,1111122 
DISL,ioos:station:DISL:KATA:1,2017-05-01T09:30:00Z,30.2583,-88.2131,4.204,7.5,1111122 
DISL,ioos:station:DISL:KATA:1,2017-05-01T10:00:00Z,30.2583,-88.2131,4.2,7.29,1111122 
DISL,ioos:station:DISL:KATA:1,2017-05-01T10:30:00Z,30.2583,-88.2131,4.132,7.28,1111122 
DISL,ioos:station:DISL:KATA:1,2017-05-01T11:00:00Z,30.2583,-88.2131,4.117,7.27,1111122 
DISL,ioos:station:DISL:KATA:1,2017-05-01T11:30:00Z,30.2583,-88.2131,4.111,7.08,1111122 
DISL,ioos:station:DISL:KATA:1,2017-05-01T12:00:00Z,30.2583,-88.2131,4.136,7.18,1111122 
DISL,ioos:station:DISL:KATA:1,2017-05-01T12:30:00Z,30.2583,-88.2131,4.15,6.74,1111122 
DISL,ioos:station:DISL:KATA:1,2017-05-01T13:00:00Z,30.2583,-88.2131,4.162,5.96,1111122 
DISL,ioos:station:DISL:KATA:1,2017-05-01T13:30:00Z,30.2583,-88.2131,4.198,5.48,1111122 
DISL,ioos:station:DISL:KATA:1,2017-05-01T14:00:00Z,30.2583,-88.2131,4.221,5.88,1111122 
DISL,ioos:station:DISL:KATA:1,2017-05-01T14:30:00Z,30.2583,-88.2131,4.294,5.28,1111122 
DISL,ioos:station:DISL:KATA:1,2017-05-01T15:00:00Z,30.2583,-88.2131,4.357,5.46,1111122 
DISL,ioos:station:DISL:KATA:1,2017-05-01T15:30:00Z,30.2583,-88.2131,4.403,5.85,1111122 
DISL,ioos:station:DISL:KATA:1,2017-05-01T16:00:00Z,30.2583,-88.2131,4.421,6.16,1111122 
DISL,ioos:station:DISL:KATA:1,2017-05-01T16:30:00Z,30.2583,-88.2131,4.439,6.33,1111122 
DISL,ioos:station:DISL:KATA:1,2017-05-01T17:00:00Z,30.2583,-88.2131,4.438,6.28,1111122 
DISL,ioos:station:DISL:KATA:1,2017-05-01T17:30:00Z,30.2583,-88.2131,4.439,6.07,1111122 
DISL,ioos:station:DISL:KATA:1,2017-05-01T18:00:00Z,30.2583,-88.2131,4.452,5.81,1111122 
DISL,ioos:station:DISL:KATA:1,2017-05-01T18:30:00Z,30.2583,-88.2131,4.478,5.71,1111122 
DISL,ioos:station:DISL:KATA:1,2017-05-01T19:00:00Z,30.2583,-88.2131,4.494,6.08,1111122 
DISL,ioos:station:DISL:KATA:1,2017-05-01T19:30:00Z,30.2583,-88.2131,4.493,6.23,1111122 
DISL,ioos:station:DISL:KATA:1,2017-05-01T20:00:00Z,30.2583,-88.2131,4.467,6.43,1111122 
DISL,ioos:station:DISL:KATA:1,2017-05-01T20:30:00Z,30.2583,-88.2131,4.432,5.75,1111122 
DISL,ioos:station:DISL:KATA:1,2017-05-01T21:00:00Z,30.2583,-88.2131,4.379,5.03,1111122 
DISL,ioos:station:DISL:KATA:1,2017-05-01T21:30:00Z,30.2583,-88.2131,4.364,5.1,1111122 
DISL,ioos:station:DISL:KATA:1,2017-05-01T22:00:00Z,30.2583,-88.2131,4.352,3.98,1111122 
DISL,ioos:station:DISL:KATA:1,2017-05-01T22:30:00Z,30.2583,-88.2131,4.339,5.52,1111122 
DISL,ioos:station:DISL:KATA:1,2017-05-01T23:00:00Z,30.2583,-88.2131,4.319,6.59,1111122 
DISL,ioos:station:DISL:KATA:1,2017-05-01T23:30:00Z,30.2583,-88.2131,4.302,6.55,1111122 
DISL,ioos:station:DISL:KATA:1,2017-05-02T00:00:00Z,30.2583,-88.2131,4.275,6.3,1111122 
DISL,ioos:station:DISL:KATA:1,2017-05-02T00:30:00Z,30.2583,-88.2131,4.229,5.98,1111122 
DISL,ioos:station:DISL:KATA:1,2017-05-02T01:00:00Z,30.2583,-88.2131,4.195,6.08,1111122 
DISL,ioos:station:DISL:KATA:1,2017-05-02T01:30:00Z,30.2583,-88.2131,4.151,6.19,1111122 
DISL,ioos:station:DISL:KATA:1,2017-05-02T02:00:00Z,30.2583,-88.2131,4.123,6.29,1111122 
DISL,ioos:station:DISL:KATA:1,2017-05-02T02:30:00Z,30.2583,-88.2131,4.082,6.13,1111122 
DISL,ioos:station:DISL:KATA:1,2017-05-02T03:00:00Z,30.2583,-88.2131,4.043,6.12,1111122 
DISL,ioos:station:DISL:KATA:1,2017-05-02T03:30:00Z,30.2583,-88.2131,4.025,6.68,1111122 
DISL,ioos:station:DISL:KATA:1,2017-05-02T04:00:00Z,30.2583,-88.2131,3.994,7.22,1111122 
DISL,ioos:station:DISL:KATA:1,2017-05-02T04:30:00Z,30.2583,-88.2131,3.969,7.36,1111122 
DISL,ioos:station:DISL:KATA:1,2017-05-02T05:00:00Z,30.2583,-88.2131,3.948,7.05,1111122 
DISL,ioos:station:DISL:KATA:1,2017-05-02T05:30:00Z,30.2583,-88.2131,3.928,6.88,1111122 
DISL,ioos:station:DISL:KATA:1,2017-05-02T06:00:00Z,30.2583,-88.2131,3.919,6.89,1111122 
DISL,ioos:station:DISL:KATA:1,2017-05-02T06:30:00Z,30.2583,-88.2131,3.91,6.54,1111122 
DISL,ioos:station:DISL:KATA:1,2017-05-02T07:00:00Z,30.2583,-88.2131,3.909,6.71,1111122 
DISL,ioos:station:DISL:KATA:1,2017-05-02T07:30:00Z,30.2583,-88.2131,3.917,3.42,1111122 
DISL,ioos:station:DISL:KATA:1,2017-05-02T08:00:00Z,30.2583,-88.2131,3.932,3.62,1111122 
DISL,ioos:station:DISL:KATA:1,2017-05-02T08:30:00Z,30.2583,-88.2131,3.962,3.01,1111122 
DISL,ioos:station:DISL:KATA:1,2017-05-02T09:00:00Z,30.2583,-88.2131,3.989,4.14,1111122 
DISL,ioos:station:DISL:KATA:1,2017-05-02T09:30:00Z,30.2583,-88.2131,4.014,3.86,1111122 
DISL,ioos:station:DISL:KATA:1,2017-05-02T10:00:00Z,30.2583,-88.2131,4.044,4.88,1111122 
DISL,ioos:station:DISL:KATA:1,2017-05-02T10:30:00Z,30.2583,-88.2131,4.067,4.86,1111122 
DISL,ioos:station:DISL:KATA:1,2017-05-02T11:00:00Z,30.2583,-88.2131,4.094,4.89,1111122 
DISL,ioos:station:DISL:KATA:1,2017-05-02T11:30:00Z,30.2583,-88.2131,4.119,4.95,1111122 
DISL,ioos:station:DISL:KATA:1,2017-05-02T12:00:00Z,30.2583,-88.2131,4.148,4.64,1111122 
DISL,ioos:station:DISL:KATA:1,2017-05-02T12:30:00Z,30.2583,-88.2131,4.168,4.74,1111122 
DISL,ioos:station:DISL:KATA:1,2017-05-02T13:00:00Z,30.2583,-88.2131,4.185,4.5,1111122 
DISL,ioos:station:DISL:KATA:1,2017-05-02T13:30:00Z,30.2583,-88.2131,4.205,4.06,1111122 
DISL,ioos:station:DISL:KATA:1,2017-05-02T14:00:00Z,30.2583,-88.2131,4.234,4.42,1111122 
DISL,ioos:station:DISL:KATA:1,2017-05-02T14:30:00Z,30.2583,-88.2131,4.263,4.79,1111122 
DISL,ioos:station:DISL:KATA:1,2017-05-02T15:00:00Z,30.2583,-88.2131,4.287,4.4,1111122 
DISL,ioos:station:DISL:KATA:1,2017-05-02T15:30:00Z,30.2583,-88.2131,4.316,4.46,1111122 
DISL,ioos:station:DISL:KATA:1,2017-05-02T16:00:00Z,30.2583,-88.2131,4.351,4.26,1111122 
DISL,ioos:station:DISL:KATA:1,2017-05-02T16:30:00Z,30.2583,-88.2131,4.358,4.46,1111122 
DISL,ioos:station:DISL:KATA:1,2017-05-02T17:00:00Z,30.2583,-88.2131,4.372,4.41,1111122 
DISL,ioos:station:DISL:KATA:1,2017-05-02T17:30:00Z,30.2583,-88.2131,4.384,4.6,1111122 
DISL,ioos:station:DISL:KATA:1,2017-05-02T18:00:00Z,30.2583,-88.2131,4.388,4.39,1111122 
DISL,ioos:station:DISL:KATA:1,2017-05-02T18:30:00Z,30.2583,-88.2131,4.399,4.65,1111122 
DISL,ioos:station:DISL:KATA:1,2017-05-02T19:00:00Z,30.2583,-88.2131,4.405,4.5,1111122 
DISL,ioos:station:DISL:KATA:1,2017-05-02T19:30:00Z,30.2583,-88.2131,4.402,4.29,1111122 
DISL,ioos:station:DISL:KATA:1,2017-05-02T20:00:00Z,30.2583,-88.2131,4.402,4.28,1111122 
DISL,ioos:station:DISL:KATA:1,2017-05-02T20:30:00Z,30.2583,-88.2131,4.394,4.28,1111122 
DISL,ioos:station:DISL:KATA:1,2017-05-02T21:00:00Z,30.2583,-88.2131,4.37,4.27,1111122 
DISL,ioos:station:DISL:KATA:1,2017-05-02T21:30:00Z,30.2583,-88.2131,4.348,3.95,1111122 
DISL,ioos:station:DISL:KATA:1,2017-05-02T22:00:00Z,30.2583,-88.2131,4.329,4.46,1111122 
DISL,ioos:station:DISL:KATA:1,2017-05-02T22:30:00Z,30.2583,-88.2131,4.309,4.63,1111122 
DISL,ioos:station:DISL:KATA:1,2017-05-02T23:00:00Z,30.2583,-88.2131,4.289,5.32,1111122 
DISL,ioos:station:DISL:KATA:1,2017-05-02T23:30:00Z,30.2583,-88.2131,4.27,6.0,1111122 
DISL,ioos:station:DISL:KATA:1,2017-05-03T00:00:00Z,30.2583,-88.2131,4.245,5.61,1111122 
DISL,ioos:station:DISL:KATA:1,2017-05-03T00:30:00Z,30.2583,-88.2131,4.22,5.63,1111122 
DISL,ioos:station:DISL:KATA:1,2017-05-03T01:00:00Z,30.2583,-88.2131,4.191,5.56,1111122 
DISL,ioos:station:DISL:KATA:1,2017-05-03T01:30:00Z,30.2583,-88.2131,4.156,5.57,1111122 
DISL,ioos:station:DISL:KATA:1,2017-05-03T02:00:00Z,30.2583,-88.2131,4.122,5.33,1111122 
DISL,ioos:station:DISL:KATA:1,2017-05-03T02:30:00Z,30.2583,-88.2131,4.085,5.4,1111122 
DISL,ioos:station:DISL:KATA:1,2017-05-03T03:00:00Z,30.2583,-88.2131,4.047,5.09,1111122 
DISL,ioos:station:DISL:KATA:1,2017-05-03T03:30:00Z,30.2583,-88.2131,4.021,5.02,1111122 
DISL,ioos:station:DISL:KATA:1,2017-05-03T04:00:00Z,30.2583,-88.2131,3.989,4.89,1111122 
DISL,ioos:station:DISL:KATA:1,2017-05-03T04:30:00Z,30.2583,-88.2131,3.961,4.63,1111122 
DISL,ioos:station:DISL:KATA:1,2017-05-03T05:00:00Z,30.2583,-88.2131,3.938,4.13,1111122 
DISL,ioos:station:DISL:KATA:1,2017-05-03T05:30:00Z,30.2583,-88.2131,3.914,3.63,1111122 
DISL,ioos:station:DISL:KATA:1,2017-05-03T06:00:00Z,30.2583,-88.2131,3.91,2.04,1111122 
DISL,ioos:station:DISL:KATA:1,2017-05-03T06:30:00Z,30.2583,-88.2131,3.901,1.9,1111122 
DISL,ioos:station:DISL:KATA:1,2017-05-03T07:00:00Z,30.2583,-88.2131,3.898,2.76,1111122 
DISL,ioos:station:DISL:KATA:1,2017-05-03T07:30:00Z,30.2583,-88.2131,3.897,2.45,1111122 
DISL,ioos:station:DISL:KATA:1,2017-05-03T08:00:00Z,30.2583,-88.2131,3.893,2.31,1111122 
DISL,ioos:station:DISL:KATA:1,2017-05-03T08:30:00Z,30.2583,-88.2131,3.904,2.09,1111122 
DISL,ioos:station:DISL:KATA:1,2017-05-03T09:00:00Z,30.2583,-88.2131,3.909,3.13,1111122 
DISL,ioos:station:DISL:KATA:1,2017-05-03T09:30:00Z,30.2583,-88.2131,3.923,3.15,1111122 
DISL,ioos:station:DISL:KATA:1,2017-05-03T10:00:00Z,30.2583,-88.2131,3.94,3.35,1111122 
DISL,ioos:station:DISL:KATA:1,2017-05-03T10:30:00Z,30.2583,-88.2131,3.957,3.39,1111122 
DISL,ioos:station:DISL:KATA:1,2017-05-03T11:00:00Z,30.2583,-88.2131,3.973,3.09,1111122 
DISL,ioos:station:DISL:KATA:1,2017-05-03T11:30:00Z,30.2583,-88.2131,3.998,3.7,1111122 
DISL,ioos:station:DISL:KATA:1,2017-05-03T12:00:00Z,30.2583,-88.2131,4.018,3.65,1111122 
DISL,ioos:station:DISL:KATA:1,2017-05-03T12:30:00Z,30.2583,-88.2131,4.044,3.69,1111122 
DISL,ioos:station:DISL:KATA:1,2017-05-03T13:00:00Z,30.2583,-88.2131,4.071,3.63,1111122 
DISL,ioos:station:DISL:KATA:1,2017-05-03T13:30:00Z,30.2583,-88.2131,4.097,3.56,1111122 
DISL,ioos:station:DISL:KATA:1,2017-05-03T14:00:00Z,30.2583,-88.2131,4.127,3.45,1111122 
DISL,ioos:station:DISL:KATA:1,2017-05-03T14:30:00Z,30.2583,-88.2131,4.149,3.65,1111122 
DISL,ioos:station:DISL:KATA:1,2017-05-03T15:00:00Z,30.2583,-88.2131,4.172,3.61,1111122 
DISL,ioos:station:DISL:KATA:1,2017-05-03T15:30:00Z,30.2583,-88.2131,4.194,3.76,1111122 
DISL,ioos:station:DISL:KATA:1,2017-05-03T16:00:00Z,30.2583,-88.2131,4.215,3.86,1111122 
DISL,ioos:station:DISL:KATA:1,2017-05-03T16:30:00Z,30.2583,-88.2131,4.222,3.87,1111122 
DISL,ioos:station:DISL:KATA:1,2017-05-03T17:00:00Z,30.2583,-88.2131,4.243,3.77,1111122 
DISL,ioos:station:DISL:KATA:1,2017-05-03T17:30:00Z,30.2583,-88.2131,4.267,3.67,1111122 
DISL,ioos:station:DISL:KATA:1,2017-05-03T18:00:00Z,30.2583,-88.2131,4.29,3.4,1111122 
DISL,ioos:station:DISL:KATA:1,2017-05-03T18:30:00Z,30.2583,-88.2131,4.316,3.53,1111122 
DISL,ioos:station:DISL:KATA:1,2017-05-03T19:00:00Z,30.2583,-88.2131,4.338,3.92,1111122 
DISL,ioos:station:DISL:KATA:1,2017-05-03T19:30:00Z,30.2583,-88.2131,4.32,3.73,1111122 
DISL,ioos:station:DISL:KATA:1,2017-05-03T20:00:00Z,30.2583,-88.2131,4.358,3.31,1111122 
DISL,ioos:station:DISL:KATA:1,2017-05-03T20:30:00Z,30.2583,-88.2131,4.233,3.7,1111122 
DISL,ioos:station:DISL:KATA:1,2017-05-03T21:00:00Z,30.2583,-88.2131,4.3,3.27,1111122 
DISL,ioos:station:DISL:KATA:1,2017-05-03T21:30:00Z,30.2583,-88.2131,4.273,3.45,1111122 
DISL,ioos:station:DISL:KATA:1,2017-05-03T22:00:00Z,30.2583,-88.2131,4.487,3.46,1111122 
DISL,ioos:station:DISL:KATA:1,2017-05-03T22:30:00Z,30.2583,-88.2131,4.627,4.85,1111122 
DISL,ioos:station:DISL:KATA:1,2017-05-03T23:00:00Z,30.2583,-88.2131,4.412,3.92,1111122 
DISL,ioos:station:DISL:KATA:1,2017-05-03T23:30:00Z,30.2583,-88.2131,4.298,4.14,1111122 
DISL,ioos:station:DISL:KATA:1,2017-05-04T00:00:00Z,30.2583,-88.2131,4.03,6.56,1111122 
DISL,ioos:station:DISL:KATA:1,2017-05-04T00:30:00Z,30.2583,-88.2131,3.886,6.92,1111122 
DISL,ioos:station:DISL:KATA:1,2017-05-04T01:00:00Z,30.2583,-88.2131,3.894,6.75,1111122 
DISL,ioos:station:DISL:KATA:1,2017-05-04T01:30:00Z,30.2583,-88.2131,3.899,6.57,1111122 
DISL,ioos:station:DISL:KATA:1,2017-05-04T02:00:00Z,30.2583,-88.2131,4.02,6.01,1111122 
DISL,ioos:station:DISL:KATA:1,2017-05-04T02:30:00Z,30.2583,-88.2131,4.166,6.44,1111122 
DISL,ioos:station:DISL:KATA:1,2017-05-04T03:00:00Z,30.2583,-88.2131,4.349,6.46,1111122 
DISL,ioos:station:DISL:KATA:1,2017-05-04T03:30:00Z,30.2583,-88.2131,4.494,6.95,1111122 
DISL,ioos:station:DISL:KATA:1,2017-05-04T04:00:00Z,30.2583,-88.2131,4.539,6.72,1111122 
DISL,ioos:station:DISL:KATA:1,2017-05-04T04:30:00Z,30.2583,-88.2131,4.475,6.19,1111122 
DISL,ioos:station:DISL:KATA:1,2017-05-04T05:00:00Z,30.2583,-88.2131,4.367,6.36,1111122 
DISL,ioos:station:DISL:KATA:1,2017-05-04T05:30:00Z,30.2583,-88.2131,4.213,6.73,1111122 
DISL,ioos:station:DISL:KATA:1,2017-05-04T06:00:00Z,30.2583,-88.2131,4.129,6.97,1111122 
DISL,ioos:station:DISL:KATA:1,2017-05-04T06:30:00Z,30.2583,-88.2131,4.09,7.07,1111122 
DISL,ioos:station:DISL:KATA:1,2017-05-04T07:00:00Z,30.2583,-88.2131,3.986,7.15,1111122 
DISL,ioos:station:DISL:KATA:1,2017-05-04T07:30:00Z,30.2583,-88.2131,3.909,7.15,1111122 
DISL,ioos:station:DISL:KATA:1,2017-05-04T08:00:00Z,30.2583,-88.2131,3.905,7.13,1111122 
DISL,ioos:station:DISL:KATA:1,2017-05-04T08:30:00Z,30.2583,-88.2131,3.858,7.26,1111122 
DISL,ioos:station:DISL:KATA:1,2017-05-04T09:00:00Z,30.2583,-88.2131,3.821,7.35,1111122 
DISL,ioos:station:DISL:KATA:1,2017-05-04T09:30:00Z,30.2583,-88.2131,3.784,7.6,1111122 
DISL,ioos:station:DISL:KATA:1,2017-05-04T10:00:00Z,30.2583,-88.2131,3.739,7.74,1111122 
DISL,ioos:station:DISL:KATA:1,2017-05-04T10:30:00Z,30.2583,-88.2131,3.705,7.55,1111122 
DISL,ioos:station:DISL:KATA:1,2017-05-04T11:00:00Z,30.2583,-88.2131,3.752,7.13,1111122 
DISL,ioos:station:DISL:KATA:1,2017-05-04T11:30:00Z,30.2583,-88.2131,3.842,6.45,1111122 
DISL,ioos:station:DISL:KATA:1,2017-05-04T12:00:00Z,30.2583,-88.2131,3.882,7.32,1111122 
DISL,ioos:station:DISL:KATA:1,2017-05-04T12:30:00Z,30.2583,-88.2131,3.949,7.64,1111122 
DISL,ioos:station:DISL:KATA:1,2017-05-04T13:00:00Z,30.2583,-88.2131,4.219,7.62,1111122 
DISL,ioos:station:DISL:KATA:1,2017-05-04T13:30:00Z,30.2583,-88.2131,4.364,7.66,1111122 
DISL,ioos:station:DISL:KATA:1,2017-05-04T14:00:00Z,30.2583,-88.2131,4.429,7.54,1111122 
DISL,ioos:station:DISL:KATA:1,2017-05-04T14:30:00Z,30.2583,-88.2131,4.52,7.51,1111122 
DISL,ioos:station:DISL:KATA:1,2017-05-04T15:00:00Z,30.2583,-88.2131,4.611,7.28,1111122 
DISL,ioos:station:DISL:KATA:1,2017-05-04T15:30:00Z,30.2583,-88.2131,4.664,7.29,1111122 
DISL,ioos:station:DISL:KATA:1,2017-05-04T16:00:00Z,30.2583,-88.2131,4.698,7.43,1111122 
DISL,ioos:station:DISL:KATA:1,2017-05-04T16:30:00Z,30.2583,-88.2131,4.623,7.28,1111122 
DISL,ioos:station:DISL:KATA:1,2017-05-04T17:00:00Z,30.2583,-88.2131,4.542,7.33,1111122 
DISL,ioos:station:DISL:KATA:1,2017-05-04T17:30:00Z,30.2583,-88.2131,4.349,7.29,1111122 
DISL,ioos:station:DISL:KATA:1,2017-05-04T18:00:00Z,30.2583,-88.2131,4.263,7.17,1111122 
DISL,ioos:station:DISL:KATA:1,2017-05-04T18:30:00Z,30.2583,-88.2131,4.217,7.3,1111122 
DISL,ioos:station:DISL:KATA:1,2017-05-04T19:00:00Z,30.2583,-88.2131,4.265,7.43,1111122 
DISL,ioos:station:DISL:KATA:1,2017-05-04T19:30:00Z,30.2583,-88.2131,4.343,7.55,1111122 
DISL,ioos:station:DISL:KATA:1,2017-05-04T20:00:00Z,30.2583,-88.2131,4.463,7.89,1111122 
DISL,ioos:station:DISL:KATA:1,2017-05-04T20:30:00Z,30.2583,-88.2131,4.354,7.85,1111122 
DISL,ioos:station:DISL:KATA:1,2017-05-04T21:00:00Z,30.2583,-88.2131,4.351,8.09,1111122 
DISL,ioos:station:DISL:KATA:1,2017-05-04T21:30:00Z,30.2583,-88.2131,4.308,8.14,1111122 
DISL,ioos:station:DISL:KATA:1,2017-05-04T22:00:00Z,30.2583,-88.2131,4.21,8.23,1111122 
DISL,ioos:station:DISL:KATA:1,2017-05-04T22:30:00Z,30.2583,-88.2131,4.19,8.25,1111122 
DISL,ioos:station:DISL:KATA:1,2017-05-04T23:00:00Z,30.2583,-88.2131,4.215,8.08,1111122 
DISL,ioos:station:DISL:KATA:1,2017-05-04T23:30:00Z,30.2583,-88.2131,4.093,8.04,1111122 
DISL,ioos:station:DISL:KATA:1,2017-05-05T00:00:00Z,30.2583,-88.2131,4.246,7.9,1111122 
DISL,ioos:station:DISL:KATA:1,2017-05-05T00:30:00Z,30.2583,-88.2131,4.243,7.47,1111122 
DISL,ioos:station:DISL:KATA:1,2017-05-05T01:00:00Z,30.2583,-88.2131,4.156,7.44,1111122 
DISL,ioos:station:DISL:KATA:1,2017-05-05T01:30:00Z,30.2583,-88.2131,4.108,7.54,1111122 
DISL,ioos:station:DISL:KATA:1,2017-05-05T02:00:00Z,30.2583,-88.2131,4.116,8.08,1111122 
DISL,ioos:station:DISL:KATA:1,2017-05-05T02:30:00Z,30.2583,-88.2131,4.227,7.98,1111122 
DISL,ioos:station:DISL:KATA:1,2017-05-05T03:00:00Z,30.2583,-88.2131,4.027,8.11,1111122 
DISL,ioos:station:DISL:KATA:1,2017-05-05T03:30:00Z,30.2583,-88.2131,3.873,8.05,1111122 
DISL,ioos:station:DISL:KATA:1,2017-05-05T04:00:00Z,30.2583,-88.2131,4.061,8.05,1111122 
DISL,ioos:station:DISL:KATA:1,2017-05-05T04:30:00Z,30.2583,-88.2131,3.866,7.98,1111122 
DISL,ioos:station:DISL:KATA:1,2017-05-05T05:00:00Z,30.2583,-88.2131,3.908,7.94,1111122 
DISL,ioos:station:DISL:KATA:1,2017-05-05T05:30:00Z,30.2583,-88.2131,3.777,7.89,1111122 
DISL,ioos:station:DISL:KATA:1,2017-05-05T06:00:00Z,30.2583,-88.2131,3.757,7.82,1111122 
DISL,ioos:station:DISL:KATA:1,2017-05-05T06:30:00Z,30.2583,-88.2131,3.765,8.12,1111122 
DISL,ioos:station:DISL:KATA:1,2017-05-05T07:00:00Z,30.2583,-88.2131,3.716,8.03,1111122 
DISL,ioos:station:DISL:KATA:1,2017-05-05T07:30:00Z,30.2583,-88.2131,3.733,8.04,1111122 
DISL,ioos:station:DISL:KATA:1,2017-05-05T08:00:00Z,30.2583,-88.2131,3.795,8.13,1111122 
DISL,ioos:station:DISL:KATA:1,2017-05-05T08:30:00Z,30.2583,-88.2131,3.887,8.2,1111122 
DISL,ioos:station:DISL:KATA:1,2017-05-05T09:00:00Z,30.2583,-88.2131,3.899,8.27,1111122 
DISL,ioos:station:DISL:KATA:1,2017-05-05T09:30:00Z,30.2583,-88.2131,3.96,8.18,1111122 
DISL,ioos:station:DISL:KATA:1,2017-05-05T10:00:00Z,30.2583,-88.2131,3.958,8.22,1111122 
DISL,ioos:station:DISL:KATA:1,2017-05-05T10:30:00Z,30.2583,-88.2131,3.869,8.19,1111122 
DISL,ioos:station:DISL:KATA:1,2017-05-05T11:00:00Z,30.2583,-88.2131,3.887,8.12,1111122 
DISL,ioos:station:DISL:KATA:1,2017-05-05T11:30:00Z,30.2583,-88.2131,3.941,7.89,1111122 
DISL,ioos:station:DISL:KATA:1,2017-05-05T12:00:00Z,30.2583,-88.2131,3.956,7.93,1111122 
DISL,ioos:station:DISL:KATA:1,2017-05-05T12:30:00Z,30.2583,-88.2131,4.001,7.89,1111122 
DISL,ioos:station:DISL:KATA:1,2017-05-05T13:00:00Z,30.2583,-88.2131,3.966,7.85,1111122 
DISL,ioos:station:DISL:KATA:1,2017-05-05T13:30:00Z,30.2583,-88.2131,4.117,7.9,1111122 
DISL,ioos:station:DISL:KATA:1,2017-05-05T14:00:00Z,30.2583,-88.2131,4.257,7.83,1111122 
DISL,ioos:station:DISL:KATA:1,2017-05-05T14:30:00Z,30.2583,-88.2131,4.187,7.75,1111122 
DISL,ioos:station:DISL:KATA:1,2017-05-05T15:00:00Z,30.2583,-88.2131,4.016,7.7,1111122 
DISL,ioos:station:DISL:KATA:1,2017-05-05T15:30:00Z,30.2583,-88.2131,4.207,7.52,1111122 
DISL,ioos:station:DISL:KATA:1,2017-05-05T16:00:00Z,30.2583,-88.2131,4.239,7.61,1111122 
DISL,ioos:station:DISL:KATA:1,2017-05-05T16:30:00Z,30.2583,-88.2131,4.202,8.41,1111122 
DISL,ioos:station:DISL:KATA:1,2017-05-05T17:00:00Z,30.2583,-88.2131,4.146,8.34,1111122 
DISL,ioos:station:DISL:KATA:1,2017-05-05T17:30:00Z,30.2583,-88.2131,4.162,8.53,1111122 
DISL,ioos:station:DISL:KATA:1,2017-05-05T18:00:00Z,30.2583,-88.2131,4.036,8.65,1111122 
DISL,ioos:station:DISL:KATA:1,2017-05-05T18:30:00Z,30.2583,-88.2131,4.046,8.7,1111122 
DISL,ioos:station:DISL:KATA:1,2017-05-05T19:00:00Z,30.2583,-88.2131,3.987,8.67,1111122 
DISL,ioos:station:DISL:KATA:1,2017-05-05T19:30:00Z,30.2583,-88.2131,3.988,8.57,1111122 
DISL,ioos:station:DISL:KATA:1,2017-05-05T20:00:00Z,30.2583,-88.2131,3.926,8.48,1111122 
DISL,ioos:station:DISL:KATA:1,2017-05-05T20:30:00Z,30.2583,-88.2131,3.901,8.36,1111122 
DISL,ioos:station:DISL:KATA:1,2017-05-05T21:00:00Z,30.2583,-88.2131,3.918,8.1,1111122 
DISL,ioos:station:DISL:KATA:1,2017-05-05T21:30:00Z,30.2583,-88.2131,3.955,8.46,1111122 
DISL,ioos:station:DISL:KATA:1,2017-05-05T22:00:00Z,30.2583,-88.2131,3.921,8.57,1111122 
DISL,ioos:station:DISL:KATA:1,2017-05-05T22:30:00Z,30.2583,-88.2131,3.983,8.61,1111122 
DISL,ioos:station:DISL:KATA:1,2017-05-05T23:00:00Z,30.2583,-88.2131,3.981,8.49,1111122 
DISL,ioos:station:DISL:KATA:1,2017-05-05T23:30:00Z,30.2583,-88.2131,4.007,8.47,1111122 
DISL,ioos:station:DISL:KATA:1,2017-05-06T00:00:00Z,30.2583,-88.2131,3.993,8.3,1111122 
DISL,ioos:station:DISL:KATA:1,2017-05-06T00:30:00Z,30.2583,-88.2131,3.983,8.35,1111122 
DISL,ioos:station:DISL:KATA:1,2017-05-06T01:00:00Z,30.2583,-88.2131,3.947,9.01,1111122 
DISL,ioos:station:DISL:KATA:1,2017-05-06T01:30:00Z,30.2583,-88.2131,3.927,8.96,1111122 
DISL,ioos:station:DISL:KATA:1,2017-05-06T02:00:00Z,30.2583,-88.2131,3.913,8.78,1111122 
DISL,ioos:station:DISL:KATA:1,2017-05-06T02:30:00Z,30.2583,-88.2131,3.9,8.85,1111122 
DISL,ioos:station:DISL:KATA:1,2017-05-06T03:00:00Z,30.2583,-88.2131,3.891,8.74,1111122 
DISL,ioos:station:DISL:KATA:1,2017-05-06T03:30:00Z,30.2583,-88.2131,3.876,8.52,1111122 
DISL,ioos:station:DISL:KATA:1,2017-05-06T04:00:00Z,30.2583,-88.2131,3.862,8.56,1111122 
DISL,ioos:station:DISL:KATA:1,2017-05-06T04:30:00Z,30.2583,-88.2131,3.845,8.7,1111122 
DISL,ioos:station:DISL:KATA:1,2017-05-06T05:00:00Z,30.2583,-88.2131,3.83,8.81,1111122 
DISL,ioos:station:DISL:KATA:1,2017-05-06T05:30:00Z,30.2583,-88.2131,3.814,8.98,1111122 
DISL,ioos:station:DISL:KATA:1,2017-05-06T06:00:00Z,30.2583,-88.2131,3.801,8.81,1111122 
DISL,ioos:station:DISL:KATA:1,2017-05-06T06:30:00Z,30.2583,-88.2131,3.8,8.91,1111122 
DISL,ioos:station:DISL:KATA:1,2017-05-06T07:00:00Z,30.2583,-88.2131,3.815,8.58,1111122 
DISL,ioos:station:DISL:KATA:1,2017-05-06T07:30:00Z,30.2583,-88.2131,3.837,8.25,1111122 
DISL,ioos:station:DISL:KATA:1,2017-05-06T08:00:00Z,30.2583,-88.2131,3.857,8.08,1111122 
DISL,ioos:station:DISL:KATA:1,2017-05-06T08:30:00Z,30.2583,-88.2131,3.889,7.94,1111122 
DISL,ioos:station:DISL:KATA:1,2017-05-06T09:00:00Z,30.2583,-88.2131,3.896,7.63,1111122 
DISL,ioos:station:DISL:KATA:1,2017-05-06T09:30:00Z,30.2583,-88.2131,3.922,7.27,1111122 
DISL,ioos:station:DISL:KATA:1,2017-05-06T10:00:00Z,30.2583,-88.2131,3.94,7.99,1111122 
DISL,ioos:station:DISL:KATA:1,2017-05-06T10:30:00Z,30.2583,-88.2131,3.949,7.96,1111122 
DISL,ioos:station:DISL:KATA:1,2017-05-06T11:00:00Z,30.2583,-88.2131,3.963,7.24,1111122 
DISL,ioos:station:DISL:KATA:1,2017-05-06T11:30:00Z,30.2583,-88.2131,3.953,8.21,1111122 
DISL,ioos:station:DISL:KATA:1,2017-05-06T12:00:00Z,30.2583,-88.2131,3.947,7.48,1111122 
DISL,ioos:station:DISL:KATA:1,2017-05-06T12:30:00Z,30.2583,-88.2131,3.939,7.51,1111122 
DISL,ioos:station:DISL:KATA:1,2017-05-06T13:00:00Z,30.2583,-88.2131,3.945,7.62,1111122 
DISL,ioos:station:DISL:KATA:1,2017-05-06T13:30:00Z,30.2583,-88.2131,3.956,7.58,1111122 
DISL,ioos:station:DISL:KATA:1,2017-05-06T14:00:00Z,30.2583,-88.2131,3.974,8.14,1111122 
DISL,ioos:station:DISL:KATA:1,2017-05-06T14:30:00Z,30.2583,-88.2131,3.99,8.47,1111122 
DISL,ioos:station:DISL:KATA:1,2017-05-06T15:00:00Z,30.2583,-88.2131,4.013,8.55,1111122 
DISL,ioos:station:DISL:KATA:1,2017-05-06T15:30:00Z,30.2583,-88.2131,4.029,8.48,1111122 